Home   Weather   Munising   Past weeks
Flag for USA

Past Weather in Munising, Michigan, USA — Yesterday and Last 2 Weeks

Now
70 °F

Mild.


Feels Like: 69 °F
Forecast: 79 / 60 °F
Wind: 8 mph from Southwest

Location: Munising - Munising Lakeshore

Current Time: Jul 16, 2019 at 8:49:04 am

Latest Report: Jul 16, 2019 at 7:56 am


Visibility: N/A

Pressure: 29.78 "Hg

Humidity: 84%

Dew Point: 65 °F

Location of MunisingLocation

Past Weather in Munising — Graph

°F

Munising Temperature Yesterday

Maximum temperature yesterday: 81 °F (at 5:56 pm)
Minimum temperature yesterday: 65 °F (at 7:56 am)
Average temperature yesterday: 71 °F

High & Low Weather Summary for the Past Weeks

 TemperatureHumidityPressure
High88 °F (Jul 4, 1:56 pm)97% (Jul 2, 12:56 am)30.19 "Hg (Jul 2, 12:56 am)
Low44 °F (Jul 7, 5:56 am)29% (Jul 14, 2:56 pm)29.66 "Hg (Jul 10, 5:56 pm)
Average66 °F76%29.95 "Hg
* Reported Jul 1 6:56 am — Jul 16 6:56 am, Munising. Weather by CustomWeather, © 2019

Note: Actual official high and low records may vary slightly from our data, if they occured in-between our weather recording intervals... More about our weather records

Advertising

Munising Weather History for the Previous 24 Hours

Scroll right to see more
 ConditionsComfort  
Time TempWeatherWind HumidityBarometerVisibility
6:56 am
Tue, Jul 16
68 °FMild.8 mph90%29.76 "HgN/A
5:56 am68 °FMild.9 mph90%29.75 "HgN/A
4:56 am68 °FMild.7 mph90%29.77 "HgN/A
3:56 am67 °FMild.8 mph93%29.77 "HgN/A
2:56 am67 °FMild.7 mph93%29.76 "HgN/A
1:56 am68 °FMild.10 mph90%29.76 "HgN/A
12:56 am67 °FMild.9 mph90%29.79 "HgN/A
11:56 pm
Mon, Jul 15
67 °FMild.7 mph90%29.79 "HgN/A
10:56 pm67 °FMild.12 mph87%29.85 "HgN/A
10:21 pm66 °FMild.13 mph84%29.86 "HgN/A
9:56 pm74 °FMild.6 mph76%29.80 "HgN/A
8:56 pm75 °FMild.10 mph74%29.77 "HgN/A
7:56 pm76 °FMild.12 mph72%29.78 "HgN/A
6:56 pm79 °FWarm.13 mph65%29.81 "HgN/A
5:56 pm81 °FWarm.13 mph62%29.80 "HgN/A
4:56 pm80 °FWarm.13 mph67%29.82 "HgN/A
3:56 pm77 °FWarm.10 mph71%29.87 "HgN/A
2:56 pm76 °FMild.10 mph72%29.88 "HgN/A
1:56 pm76 °FMild.10 mph72%29.91 "HgN/A
12:56 pm75 °FMild.15 mph74%29.92 "HgN/A
11:56 am72 °FMild.10 mph81%29.96 "HgN/A
10:56 am71 °FMild.10 mph84%29.97 "HgN/A
9:56 am68 °FMild.8 mph90%29.97 "HgN/A
8:56 am66 °FMild.8 mph90%29.98 "HgN/A
Weather by CustomWeather, © 2019

See weather overview

LIVE PARTIAL LUNAR ECLIPSE – Watch the eclipse as it happens